Location: Izdebno
(52.6670°N, 16.2170°E)
Time: 07:04:18
(UTC+02:00)

Vanguard 1 - Pass Details

Date: 03 March 2024
Orbit: 653 x 3825 km, 34.2° (Epoch: 22 April)

Event Time Altitude Azimuth Distance (km) Brightness Sun altitude
Rises 20:26:09 0° 251° (WSW) 5,214 14.4 -25.6°
Reaches altitude 10° 20:29:19 10° 243° (WSW) 4,586 13.9 -26.1°
Maximum altitude 20:41:40 39° 181° (S) 3,898 12.8 -27.7°
Enters shadow 20:48:08 32° 148° (SSE) 4,661 12.9 -28.6°
